User: anonymous   Login
Location: Unspecified
(0.0000°N, 0.0000°E)
Time: 16:22:52
(UTC+01:00)
Language:

ATLAS 5 CENTAUR R/B - Orbit

View from above orbital plane
View from above orbital plane
View from above satellite
View from above satellite

Ground track
Ground track

The orbit data is extracted from the following two-line orbital elements,

1 31702U 07027B   17343.27585535 0.00000100  00000-0  30892-4 0    07
2 31702  63.3622  72.5921 0298000   5.8778 354.1222 14.18599738    01
Epoch (UTC): 09 December 2017 06:37:13
Eccentricity: 0.0298000
inclination: 63.3622°
perigee height: 615 km
apogee height: 1045 km
right ascension of ascending node: 72.5921°
argument of perigee: 5.8778°
revolutions per day: 14.18599738
mean anomaly at epoch: 354.1222°
orbit number at epoch: 0

The dashed part of the orbit path shows where the satellite is in the earth's shadow,  

DLR